Kuhtai, Austria 16 day weather forecast

Slopes altitude range -1 m - -1m

Number of lifts: -1 Pistes: -1km

In some cases the lift and piste totals shown are for the ski domain (e.g. Three Valleys) rather than individual resort (e.g. Courchevel)

Overview

The 16 day weather forecast is fully updated 4 times every day.

    • Mon 22 APR 2019
    • Mon 22
    • 11C 17C
    • Tue 23 APR 2019
    • Tue 23
    • 8C 11C
    • Wed 24 APR 2019
    • Wed 24
    • 10C 15C
    • Thu 25 APR 2019
    • Thu 25
    • 11C 16C
    • Fri 26 APR 2019
    • Fri 26
    • 10C 14C
    • Sat 27 APR 2019
    • Sat 27
    • 7C 17C
    • Sun 28 APR 2019
    • Sun 28
    • 10C 18C
    • Mon 29 APR 2019
    • Mon 29
    • 12C 18C
    • Tue 30 APR 2019
    • Tue 30
    • 12C 16C
    • Wed 01 MAY 2019
    • Wed 01
    • 7C 14C
    • Thu 02 MAY 2019
    • Thu 02
    • 2C 8C
    • Fri 03 MAY 2019
    • Fri 03
    • 1C 10C
    • Sat 04 MAY 2019
    • Sat 04
    • 3C 14C
    • Sun 05 MAY 2019
    • Sun 05
    • 7C 12C
    • Mon 06 MAY 2019
    • Mon 06
    • 5C 8C
    • Tue 07 MAY 2019
    • Tue 07
    • 3C 6C

Date:

Time Type 0°C level Temp Chill Snow Cloud Speed Gust Dir Press
3:00 2744m 7°C 7_2 0cm 38% 2mph 3mph 1018mB
6:00 2613m 6°C 6_1 0cm 30% 1mph 2mph 1016mB
9:00 2860m 11°C 11_3 0cm 9% 3mph 3mph 1014mB
12:00 2803m 17°C 17_6 0cm 24% 6mph 5mph 1012mB
15:00 2760m 16°C 16_6 0cm 89% 6mph 6mph 1010mB
18:00 2650m 16°C 16_4 0cm 60% 4mph 5mph 1009mB
21:00 2426m 8°C 8_3 0cm 90% 3mph 4mph 1010mB
0:00 2248m 7°C 7_3 0cm 94% 3mph 4mph 1008mB
3:00 2210m 8°C 8_4 0cm 99% 4mph 7mph 1006mB
6:00 2162m 7°C 7_4 0cm 98% 4mph 6mph 1005mB
9:00 2208m 8°C 8_3 0cm 93% 3mph 4mph 1004mB
12:00 2311m 11°C 11_3 0cm 95% 3mph 4mph 1004mB
15:00 2498m 11°C 11_3 0cm 95% 3mph 4mph 1005mB
18:00 2394m 11°C 11_3 0cm 95% 3mph 4mph 1006mB
21:00 2459m 8°C 8_1 0cm 94% 1mph 1mph 1008mB
0:00 2497m 7°C 7_2 0cm 86% 2mph 3mph 1009mB
3:00 2425m 8°C 8_2 0cm 63% 2mph 3mph 1010mB
6:00 2366m 8°C 8_4 0cm 63% 4mph 7mph 1012mB
9:00 2414m 10°C 10_7 0cm 77% 7mph 11mph 1013mB
12:00 2577m 15°C 15_9 0cm 56% 9mph 13mph 1013mB
15:00 2589m 16°C 16_7 0cm 79% 7mph 12mph 1013mB
18:00 2563m 16°C 16_7 0cm 86% 7mph 15mph 1014mB
21:00 2513m 10°C 10_5 0cm 92% 5mph 11mph 1017mB
0:00 2427m 9°C 9_4 0cm 87% 4mph 5mph 1018mB
3:00 2342m 7°C 7_1 0cm 17% 1mph 2mph 1019mB
6:00 2319m 7°C 7_2 0cm 24% 2mph 3mph 1019mB
9:00 2534m 11°C 11_5 0cm 48% 5mph 8mph 1019mB
12:00 2715m 16°C 16_8 0cm 49% 8mph 11mph 1018mB
15:00 2782m 16°C 16_7 0cm 58% 7mph 11mph 1017mB
18:00 2728m 16°C 16_4 0cm 53% 4mph 6mph 1018mB
21:00 2725m 10°C 10_3 0cm 49% 3mph 4mph 1018mB
0:00 2621m 9°C 9_3 0cm 57% 3mph 4mph 1017mB
3:00 2487m 9°C 9_4 0cm 36% 4mph 5mph 1016mB
6:00 2462m 9°C 9_5 0cm 30% 5mph 10mph 1015mB
9:00 2296m 11°C 11_9 0cm 23% 9mph 12mph 1016mB
12:00 2181m 14°C 14_5 0cm 55% 5mph 11mph 1016mB
15:00 2133m 13°C 13_7 0cm 42% 7mph 11mph 1016mB
18:00 2001m 13°C 13_6 0cm 57% 6mph 12mph 1017mB
21:00 1736m 5°C 5_9 0cm 98% 9mph 19mph 1020mB
0:00 1766m 4°C 4_7 0cm 98% 7mph 16mph 1021mB
3:00 1921m 4°C 4_6 0cm 97% 6mph 13mph 1022mB
6:00 1992m 3°C 3_6 0cm 75% 6mph 12mph 1024mB
9:00 2072m 7°C 7_7 0cm 0% 7mph 9mph 1023mB
12:00 2265m 17°C 17_4 0cm 0% 4mph 6mph 1022mB
15:00 2428m 18°C 18_3 0cm 0% 3mph 6mph 1022mB
18:00 2410m 18°C 18_1 0cm 0% 1mph 1mph 1023mB
21:00 2518m 7°C 7_4 0cm 11% 4mph 5mph 1026mB
0:00 2596m 6°C 6_4 0cm 12% 4mph 5mph 1026mB
3:00 2668m 6°C 6_4 0cm 29% 4mph 5mph 1026mB
6:00 2773m 6°C 6_3 0cm 39% 3mph 4mph 1025mB
9:00 2865m 10°C 10_2 0cm 63% 2mph 2mph 1023mB
12:00 2866m 18°C 18_6 0cm 59% 6mph 4mph 1022mB
15:00 2896m 19°C 19_7 0cm 3% 7mph 6mph 1020mB
18:00 2963m 19°C 19_4 0cm 3% 4mph 5mph 1021mB
21:00 2967m 9°C 9_0 0cm 9% 0mph 1mph 1022mB
0:00 2996m 8°C 8_0 0cm 9% 0mph 1mph 1021mB
3:00 2864m 8°C 8_0 0cm 12% 0mph 1mph 1019mB
6:00 2825m 7°C 7_0 0cm 18% 0mph 0mph 1018mB
9:00 2889m 12°C 12_7 0cm 37% 7mph 8mph 1016mB
12:00 2973m 18°C 18_9 0cm 43% 9mph 11mph 1012mB
15:00 3151m 18°C 18_9 0cm 59% 9mph 11mph 1009mB
18:00 3013m 18°C 18_5 0cm 60% 5mph 10mph 1009mB
21:00 2979m 10°C 10_3 0cm 67% 3mph 4mph 1008mB
0:00 2853m 9°C 9_3 0cm 62% 3mph 5mph 1006mB
3:00 2754m 9°C 9_4 0cm 25% 4mph 5mph 1005mB
6:00 2706m 8°C 8_6 0cm 20% 6mph 11mph 1004mB
9:00 2625m 12°C 12_9 0cm 12% 9mph 13mph 1004mB
12:00 2490m 16°C 16_4 0cm 18% 4mph 6mph 1004mB
15:00 2353m 16°C 16_5 0cm 75% 5mph 7mph 1004mB
18:00 2267m 16°C 16_3 0cm 52% 3mph 3mph 1006mB
21:00 2092m 6°C 6_5 0cm 8% 5mph 6mph 1010mB
0:00 1941m 4°C 4_5 0cm 4% 5mph 6mph 1012mB
3:00 1818m 3°C 3_4 0cm 1% 4mph 5mph 1013mB
6:00 1787m 2°C 2_3 0cm 1% 3mph 6mph 1013mB
9:00 1835m 7°C 7_3 0cm 1% 3mph 2mph 1012mB
12:00 1948m 14°C 14_7 0cm 4% 7mph 7mph 1010mB
15:00 1921m 13°C 13_7 0cm 20% 7mph 9mph 1009mB
18:00 1922m 13°C 13_3 0cm 30% 3mph 4mph 1010mB
21:00 1884m 5°C 5_2 0cm 17% 2mph 2mph 1013mB
0:00 1806m 4°C 4_3 0cm 11% 3mph 4mph 1013mB
Afternoon 0.234375mm 2.0625 2016m 8°C 8_9 0cm 88% 9mph 15mph 1009mB
Morning 0.515625mm 5.9375 2049m 1°C 1_5 0cm 37% 5mph 6mph 1013mB
Afternoon 0.0260417mm 0.25 2212m 10°C 10_6 0cm 65% 6mph 8mph 1010mB
Morning 0.09375mm 1 2266m 5°C 5_3 0cm 76% 3mph 4mph 1011mB
Afternoon 0.0104167mm 0.0625 2604m 14°C 14_6 0cm 65% 6mph 8mph 1006mB
Morning 0.640625mm 0.125 2933m 7°C 7_4 0cm 100% 4mph 6mph 1006mB
Afternoon 0.203125mm 0.1875 2922m 12°C 12_6 0cm 93% 6mph 10mph 1001mB
Morning 2.46875mm 5.5625 2362m 5°C 5_7 0cm 92% 7mph 13mph 1000mB
Afternoon 0.489583mm 0.5 2271m 8°C 8_6 0cm 96% 6mph 10mph 1002mB
Morning 0.578125mm 5.75 2261m 4°C 4_5 0cm 97% 5mph 7mph 1007mB
Afternoon 0.453125mm 0.25 1783m 6°C 6_7 4cm 100% 7mph 12mph 1011mB
Morning 0.15625mm 0 1333m 0°C 0_7 1cm 78% 7mph 14mph 1019mB

16 day outlook at a glance

Forecast issued: 22/04/2019 08:13:00

Chat

Your comments and questions. In a resort? Let us know what it's like!


Characters left 250

For terms and conditions see Readers Comments on the Cookie and privacy policy page.